sat.trackr.live / text

‹ back to catalog

LILACSAT-2

NORAD 40908 · 2015-049K

PAYLOAD ACTIVE UNKNOWN

§ Identity

Operator
Country
PRC
Launch date
2015-09-19
Launch site
TAISC
Launch vehicle
Mass (kg)
RCS (m²)
0.10

Purposes: comms

External: N2YO · Heavens-Above · Gunter

§ Orbital elements

Epoch: 2026-09-12T03:18:45.412704Z

Period
92.65 min
Inclination
97.4565°
Eccentricity
0.0004590
Mean motion
15.54192941 rev/d
Perigee alt
401.4 km
Apogee alt
407.6 km
Semi-major
6,782.6 km
B*
2.3271e-4
RAAN
295.4180°
Arg perigee
300.5565°
Mean anomaly
59.5236°
Rev number
60,924

§ Raw data

LILACSAT-21 40908U 15049K   26255.13802561  .00015060  00000+0  23271-3 0  99952 40908  97.4565 295.4180 0004590 300.5565  59.5236 15.54192941609242

JSON: /api/v1/satellites/40908 · /tle

For live sub-satellite position, see the globe view (requires WebGL).

§ Visibility from observer

Set your observer location to see the next 7 days of passes ≥ 10°. The values pass through the URL so the page stays shareable.

No JS? Fill the form by hand. The geolocation button needs JavaScript.

§ Radio — SatNOGS DB

ModeDescriptionDownlinkUplink
AFSK APRS Digipeater 144.390 MHz 144.390 MHz
BPSK BPSK Telemetry 437.200 MHz
CW CW Beacon 437.200 MHz
GFSK GFSK Telemetry 437.225 MHz
FM FM Transponder (inactive) 437.200 MHz 144.350 MHz

5 transmitters · refreshed weekly from db.satnogs.org